STARLINK-5215, 54759

Orbit data source: Space-Track

STARLINK-5215, 54759 is a payload satellite owned by SpaceX/Seattle (US) in LEO that was launched on Sat, 17 Dec 2022 UTC via an FALCON 9 launch vehicle from the Air Force Eastern Test Range (AFETR). Payload-class satellites include a variety of spacecraft equipped with specific instruments for various scientific and technological missions. These include communications satellites like Starlink; space stations such as the ISS; scientific satellites like the Hubble; Earth observation satellites from companies like Planet Labs, Umbra, and HawkEye 360; GPS; miniature CubeSats for education and research; and military/defense satellites.

Loading next visibility...
Identifier
54759, 2022-175B
Orbit
LEO
Country
Flag of USUS
Related business
Manufacturer
SpaceX/Seattle
Mission
Operational Commercial Communications
Bus & Motor
STARLINK, Unknown motor
Mass
305 kg wet, ~290 kg dry
Launch date (UTC)
2022-12-17 (4 years ago)
Launch vehicle
FALCON 9
Launch site
Air Force Eastern Test Range (AFETR)
Object type
Payload
Rocket body
Debris
Shape & HBR
Box + 1 Pan, 10.1 m
Radar Cross Section
13.562 m², Large (>1 m²)

Expand to show TLE details & history
Last TLE update: 3 days ago

TLE from 3 days ago
0 STARLINK-5215
1 54759U 22175B   26170.68394381  .00000105  00000-0  24686-4 0  9991
2 54759  53.1607 301.3647 0001089  81.0923 279.0192 15.08834774195382
Epoch: 2026-06-19T16:24Z
TLE epoch observation values (Epoch: 2026-06-19T16:24:52.745Z)
Latitude
0.00002°
Longitude
147.23555°
Altitude
540.533 km
Speed
7.593 km/s
True Right ascension
20h 05m 27s
True Declination
0° 00' 00"
Sunlit
Object was in full shadow at epoch
Visualization orbit readout
Latitude
Unknown
Longitude
Unknown
Altitude
Unknown
Speed
Unknown
Apparent Right ascension
Unknown
Apparent Declination
Unknown
Sunlit
N/A
Visualization observer readout
Local Sidereal Time
21:30:45
Azimuth
Unknown
Elevation
Unknown
Doppler factor
Unknown
Orbital elements
Apogee altitude
540.767 km
Perigee altitude
539.26 km
Semi-major axis
6,918.15 km
Eccentricity
0.00011
Inclination
53.1607°
RAAN
301.3647°
Arg. of periapsis
81.0923°
True anomaly
279.00688°
Mean anomaly
279.0192°
Eccentric anomaly
279.01304°
Mean motion
3.77188 °/min
Orbital period
95.44 mins
BSTAR
0.000024686
Loading maneuver chart data...
Computing Atmospheric mass density...
Loading historical data...
Loading historical data...
Loading historical data...
Loading historical data...
Loading historical data...
Loading historical data...
Loading historical data...

Documentation

Showing up to 5 results
|